GPM-CORE

Last updated on Wed Oct 15 2025 00:02:29 GMT+0000 (Coordinated Universal Time)

1 39574U 14009C 25287.32382637 .00017498 00000+0 37842-3 0 9995 2 39574 64.9762 51.6965 0007300 253.7031 106.3307 15.44581422659834
UTC large
Height (km)
Speed (km/s)
/
Latitude / Longitude
Inclination (degrees)
Orbital Period (minutes)
Azimuth
Elevation
Range (km)
Doppler Factor

Next 0 passes for location: London (51.5072 / 0.1276)

Sorry there are no passes over London.